DECAYED

TRANSIT 16 DEB, 38530 (Decayed)

Orbit data source: Space-Track

TRANSIT 16 DEB, 38530 was space debris in LEO originally from a launch on Thu, 18 May 1967 UTC launched from the Air Force Western Test Range (AFWTR). Debris objects in space refer to the collection of defunct objects orbiting the Earth. Examples of debris include non-operational satellites, rocket bodies, and fragments generated from explosions, collisions, or faulty payload assembly.

Not visible in the next 10 days
TRANSIT 16 DEB details
Identifier
38530, 1967-048H
Orbit
Decayed
Last TLE update3 months ago
Origin
Flag of USUSN NAVAIR (US)
ManufacturerUnknown
MissionDecayed spacecraft
Bus & MotorUnknown
MassUnknown
Launch date (UTC)
1967-05-18 (58 years ago)
Launch vehicleUnknown
Launch site
Air Force Western Test Range (AFWTR)
Object type
Payload
Rocket body
Debris
Shape & HBRUnknown
Radar Cross SectionSmall (<0.1 m²)

Expand to show TLE details & history

TLE from 3 months ago
0 TRANSIT 16 DEB
1 38530U 67048H   24262.27431300  .04789195  00000-0  15186+0 0  9993
2 38530  89.5829   3.2200 0035330 296.5324  63.2305 15.27541041679410
Epoch: 2024-09-18T06:35Z
Definitive object data (Epoch: 2024-09-18T06:35:00.643Z)
Latitude0.00001°
Longitude-93.20965°
Altitude475.521 km
Speed7.634 km/s
True Right ascension00h 12m 52s
True Declination0° 00' 00"
Sunlit
Object was in full shadow at TLE epoch
Visualization observer readout
Observer readout values are unavailable because the object's trajectory could not be propagated. This is usually caused when the trajectory data is faulty or the object's orbit has decayed.
Visualization observer readout
Observer readout values are unavailable because the object's trajectory could not be propagated. This is usually caused when the trajectory data is faulty or the object's orbit has decayed.
Orbital elements
Apogee altitude504.192 km
Perigee altitude455.732 km
Semi-major axis6,858.099 km
Eccentricity0.003533
Inclination89.5829°
RAAN3.22°
Arg. of periapsis296.5324°
True anomaly63.59268°
Mean anomaly63.2305°
Eccentric anomaly63.41152°
Mean motion3.82153 °/min
BSTAR0.15186
Orbital period94.2 mins
Loading maneuver chart data...
Loading historical data...
Loading historical data...
Loading historical data...
Loading historical data...
Loading historical data...
Loading historical data...
Loading historical data...

TRANSIT 16 DEB Visibility forecast

Observer location: undefined°, undefined

This satellite is decayed
Span
Click to sort rows by Start time (UTC) header in descending order
Start Az.
Max El. time (UTC)
Max El. Az.
Max El.
End time (UTC)
End Az.
|